This is the latest recevied weather packets stored in our database for station/object KK7RJD. If no packets are shown the sender has not sent any weather packets the latest 10 day(s).
| Time | Temp. | Humidity | Pressure | Rain* | Wind** | Luminosity | Snow |
|---|---|---|---|---|---|---|---|
| 1777914981 | 11.11° C | 47% | 1013.5 hPa | 0 mm | - | 719 W/m² | - |
| 1777914679 | 11.11° C | 46% | 1013.3 hPa | 0 mm | - | 746 W/m² | - |
| 1777914375 | 11.11° C | 46% | 1013.5 hPa | 0 mm | - | 705 W/m² | - |
| 1777914073 | 11.11° C | 47% | 1013.5 hPa | 0 mm | - | 737 W/m² | - |
| 1777913768 | 11.11° C | 46% | 1013.4 hPa | 0 mm | - | 751 W/m² | - |
| 1777913465 | 11.11° C | 46% | 1013.3 hPa | 0 mm | - | 741 W/m² | - |
| 1777913161 | 10.56° C | 47% | 1013.5 hPa | 0 mm | - | 791 W/m² | - |
| 1777912858 | 10.56° C | 47% | 1013.3 hPa | 0 mm | - | 613 W/m² | - |
| 1777912554 | 10.56° C | 47% | 1013.5 hPa | 0 mm | - | 658 W/m² | - |
| 1777912251 | 10.56° C | 48% | 1013.7 hPa | 0 mm | - | 496 W/m² | - |
| 1777911947 | 10.56° C | 47% | 1013.5 hPa | 0 mm | - | 557 W/m² | - |
| 1777911643 | 10.56° C | 48% | 1013.6 hPa | 0 mm | - | 686 W/m² | - |
| 1777911339 | 10° C | 50% | 1013.5 hPa | 0 mm | - | 671 W/m² | - |
| 1777911037 | 10.56° C | 47% | 1013.7 hPa | 0 mm | - | 568 W/m² | - |
| 1777910735 | 10° C | 49% | 1013.4 hPa | 0 mm | - | 478 W/m² | - |
| 1777910431 | 10° C | 49% | 1013.4 hPa | 0 mm | - | 401 W/m² | - |
| 1777910127 | 10° C | 49% | 1013.6 hPa | 0 mm | - | 431 W/m² | - |
| 1777909826 | 10° C | 49% | 1013.4 hPa | 0 mm | - | 507 W/m² | - |
| 1777909522 | 10° C | 48% | 1013.5 hPa | 0 mm | - | 562 W/m² | - |
| 1777909219 | 9.44° C | 50% | 1013.4 hPa | 0 mm | - | 553 W/m² | - |
| 1777908917 | 9.44° C | 50% | 1013.5 hPa | 0 mm | - | 453 W/m² | - |
| 1777908615 | 10° C | 51% | 1013.4 hPa | 0 mm | - | 430 W/m² | - |
| 1777908311 | 10° C | 50% | 1013.2 hPa | 0 mm | - | 475 W/m² | - |
| 1777908008 | 10° C | 49% | 1013.3 hPa | 0 mm | - | 444 W/m² | - |
| 1777907703 | 10° C | 49% | 1013.4 hPa | 0 mm | - | 473 W/m² | - |
* Rain latest hour (hover to see other rain measurements)
** Current wind speed in m/s (hover to see current wind gust speed)